• în România
  • Lista ţărilor
  • Pe 7 zile
  • Temperatura apei
  • Hartă satelitară
  • Meteo pe hartă
  • Widget-uri
  • user-avatar
    Intrare

    Meteo pe oră la Istria

    Astăzi, 21 Octombrie, Sâmbătă

    Timp Temperatura Precipitaţii Vânt Presiune Umiditate
    00:00 +14°C° 0 mm 1 m/s 757 mmHg 93%
    01:00 +14°C° 0 mm 1 m/s 757 mmHg 94%
    02:00 +14°C° 0 mm 1 m/s 757 mmHg 94%
    03:00 +14°C° 0 mm 1 m/s 757 mmHg 94%
    04:00 +14°C° 0 mm 1 m/s 756 mmHg 94%
    05:00 +14°C° 0 mm 1 m/s 756 mmHg 93%
    06:00 +14°C° 0 mm 1 m/s 757 mmHg 93%
    07:00 +14°C° 0 mm 1 m/s 757 mmHg 93%
    08:00 +16°C° 0 mm 1 m/s 757 mmHg 85%
    09:00 +18°C° 0 mm 1 m/s 757 mmHg 78%
    10:00 +20°C° 0 mm 1 m/s 757 mmHg 70%
    11:00 +20°C° 0 mm 1 m/s 756 mmHg 69%
    12:00 +21°C° 0 mm 1 m/s 756 mmHg 69%
    13:00 +21°C° 0 mm 1 m/s 756 mmHg 68%
    14:00 +20°C° 0 mm 1 m/s 756 mmHg 72%
    15:00 +20°C° 0 mm 1 m/s 755 mmHg 76%
    16:00 +19°C° 0 mm 1 m/s 755 mmHg 80%
    17:00 +19°C° 0 mm 1 m/s 755 mmHg 84%
    18:00 +18°C° 0 mm 1 m/s 755 mmHg 89%
    19:00 +16°C° 0 mm 1 m/s 756 mmHg 94%
    20:00 +16°C° 0 mm 1 m/s 756 mmHg 94%
    21:00 +16°C° 0 mm 1 m/s 755 mmHg 94%
    22:00 +15°C° 0 mm 1 m/s 755 mmHg 94%
    23:00 +15°C° 0 mm 1 m/s 755 mmHg 94%

    Mâine, 22 Octombrie, Duminică

    Timp Temperatura Precipitaţii Vânt Presiune Umiditate
    00:00 +15°C° 0 mm 1 m/s 755 mmHg 95%
    01:00 +15°C° 0 mm 1 m/s 755 mmHg 95%
    02:00 +15°C° 0 mm 2 m/s 755 mmHg 94%
    03:00 +15°C° 0 mm 2 m/s 754 mmHg 94%
    04:00 +16°C° 0 mm 2 m/s 754 mmHg 94%
    05:00 +16°C° 0 mm 2 m/s 754 mmHg 94%
    06:00 +16°C° 0 mm 3 m/s 753 mmHg 94%
    07:00 +16°C° 0 mm 3 m/s 753 mmHg 93%
    08:00 +17°C° 0,5 mm 3 m/s 753 mmHg 91%
    09:00 +17°C° 0,5 mm 4 m/s 752 mmHg 89%
    10:00 +18°C° 0,5 mm 4 m/s 752 mmHg 88%
    11:00 +17°C° 1,6 mm 5 m/s 752 mmHg 89%
    12:00 +17°C° 1,6 mm 5 m/s 751 mmHg 90%
    13:00 +17°C° 1,6 mm 5 m/s 750 mmHg 91%
    14:00 +17°C° 1,3 mm 5 m/s 750 mmHg 90%
    15:00 +17°C° 1,3 mm 5 m/s 749 mmHg 88%
    16:00 +17°C° 1,3 mm 6 m/s 749 mmHg 87%
    17:00 +17°C° 1 mm 5 m/s 749 mmHg 88%
    18:00 +16°C° 1 mm 5 m/s 749 mmHg 88%
    19:00 +15°C° 1 mm 5 m/s 750 mmHg 88%
    20:00 +14°C° 0,5 mm 6 m/s 750 mmHg 85%
    21:00 +12°C° 0,5 mm 7 m/s 750 mmHg 83%
    22:00 +11°C° 0,5 mm 8 m/s 750 mmHg 80%
    23:00 +11°C° 0,9 mm 9 m/s 750 mmHg 77%

    Poimâine, 23 Octombrie, Luni

    Timp Temperatura Precipitaţii Vânt Presiune Umiditate
    00:00 +11°C° 0,9 mm 10 m/s 750 mmHg 75%
    01:00 +11°C° 0,9 mm 11 m/s 750 mmHg 72%
    02:00 +11°C° 1,1 mm 10 m/s 750 mmHg 75%
    03:00 +9°C° 1,1 mm 10 m/s 750 mmHg 78%
    04:00 +10°C° 1,1 mm 9 m/s 750 mmHg 81%
    05:00 +10°C° 0,5 mm 8 m/s 751 mmHg 82%
    06:00 +10°C° 0,5 mm 8 m/s 751 mmHg 82%
    07:00 +10°C° 0,5 mm 7 m/s 752 mmHg 82%
    08:00 +10°C° 0 mm 7 m/s 752 mmHg 78%
    09:00 +11°C° 0 mm 6 m/s 752 mmHg 74%
    10:00 +13°C° 0 mm 6 m/s 753 mmHg 69%
    11:00 +14°C° 0 mm 6 m/s 752 mmHg 66%
    12:00 +14°C° 0 mm 5 m/s 752 mmHg 63%
    13:00 +15°C° 0 mm 5 m/s 752 mmHg 60%
    14:00 +15°C° 0 mm 5 m/s 752 mmHg 62%
    15:00 +14°C° 0 mm 4 m/s 752 mmHg 63%
    16:00 +14°C° 0 mm 4 m/s 752 mmHg 65%
    17:00 +13°C° 0 mm 4 m/s 752 mmHg 68%
    18:00 +12°C° 0 mm 4 m/s 753 mmHg 71%
    19:00 +11°C° 0 mm 4 m/s 753 mmHg 74%
    20:00 +11°C° 0 mm 4 m/s 754 mmHg 73%
    21:00 +11°C° 0 mm 4 m/s 754 mmHg 72%
    22:00 +11°C° 0 mm 3 m/s 754 mmHg 71%
    23:00 +11°C° 0 mm 4 m/s 754 mmHg 69%

    24 Octombrie, Marţi

    Timp Temperatura Precipitaţii Vânt Presiune Umiditate
    00:00 +11°C° 0 mm 4 m/s 754 mmHg 67%
    01:00 +10°C° 0 mm 4 m/s 754 mmHg 65%
    02:00 +10°C° 0 mm 4 m/s 755 mmHg 65%
    03:00 +10°C° 0 mm 4 m/s 755 mmHg 65%
    04:00 +10°C° 0 mm 4 m/s 755 mmHg 65%
    05:00 +10°C° 0 mm 4 m/s 755 mmHg 64%
    06:00 +10°C° 0 mm 4 m/s 755 mmHg 64%
    07:00 +10°C° 0 mm 4 m/s 756 mmHg 63%
    08:00 +12°C° 0 mm 5 m/s 756 mmHg 58%
    09:00 +14°C° 0 mm 5 m/s 756 mmHg 53%
    10:00 +16°C° 0 mm 5 m/s 756 mmHg 48%
    11:00 +16°C° 0 mm 5 m/s 756 mmHg 47%
    12:00 +17°C° 0 mm 5 m/s 756 mmHg 45%
    13:00 +19°C° 0 mm 5 m/s 756 mmHg 44%
    14:00 +17°C° 0 mm 5 m/s 756 mmHg 48%
    15:00 +16°C° 0 mm 5 m/s 756 mmHg 51%
    16:00 +16°C° 0 mm 5 m/s 756 mmHg 55%
    17:00 +15°C° 0 mm 5 m/s 757 mmHg 58%
    18:00 +14°C° 0 mm 6 m/s 757 mmHg 60%
    19:00 +13°C° 0 mm 6 m/s 758 mmHg 63%
    20:00 +11°C° 0 mm 6 m/s 758 mmHg 64%
    21:00 +11°C° 0 mm 6 m/s 759 mmHg 64%
    22:00 +11°C° 0 mm 7 m/s 759 mmHg 65%
    23:00 +10°C° 0 mm 6 m/s 760 mmHg 67%

    25 Octombrie, Miercuri

    Timp Temperatura Precipitaţii Vânt Presiune Umiditate
    00:00 +10°C° 0 mm 6 m/s 760 mmHg 68%
    01:00 +10°C° 0 mm 6 m/s 760 mmHg 70%
    02:00 +10°C° 0 mm 6 m/s 760 mmHg 71%
    03:00 +9°C° 0 mm 5 m/s 760 mmHg 73%
    04:00 +9°C° 0 mm 5 m/s 760 mmHg 75%
    05:00 +9°C° 0 mm 5 m/s 760 mmHg 76%
    06:00 +9°C° 0 mm 5 m/s 760 mmHg 77%
    07:00 +9°C° 0 mm 5 m/s 760 mmHg 78%
    08:00 +12°C° 0 mm 4 m/s 761 mmHg 72%
    09:00 +13°C° 0 mm 4 m/s 761 mmHg 65%
    10:00 +15°C° 0 mm 4 m/s 761 mmHg 59%
    11:00 +17°C° 0 mm 3 m/s 761 mmHg 57%
    12:00 +17°C° 0 mm 3 m/s 760 mmHg 55%
    13:00 +18°C° 0 mm 3 m/s 760 mmHg 53%
    14:00 +18°C° 0 mm 3 m/s 760 mmHg 57%
    15:00 +17°C° 0 mm 3 m/s 760 mmHg 60%
    16:00 +17°C° 0 mm 4 m/s 760 mmHg 64%
    17:00 +15°C° 0 mm 4 m/s 760 mmHg 68%
    18:00 +14°C° 0 mm 4 m/s 760 mmHg 72%
    19:00 +13°C° 0 mm 4 m/s 761 mmHg 75%
    20:00 +12°C° 0 mm 3 m/s 761 mmHg 76%
    21:00 +12°C° 0 mm 3 m/s 761 mmHg 77%
    22:00 +12°C° 0 mm 3 m/s 762 mmHg 78%
    23:00 +12°C° 0 mm 3 m/s 762 mmHg 79%

    26 Octombrie, Joi

    Timp Temperatura Precipitaţii Vânt Presiune Umiditate
    00:00 +12°C° 0 mm 3 m/s 762 mmHg 80%
    01:00 +12°C° 0 mm 3 m/s 762 mmHg 80%
    02:00 +11°C° 0 mm 3 m/s 761 mmHg 81%
    03:00 +11°C° 0 mm 3 m/s 761 mmHg 81%
    04:00 +11°C° 0 mm 3 m/s 761 mmHg 81%
    05:00 +11°C° 0 mm 3 m/s 761 mmHg 81%
    06:00 +11°C° 0 mm 3 m/s 762 mmHg 81%
    07:00 +11°C° 0 mm 3 m/s 762 mmHg 81%
    08:00 +14°C° 0 mm 3 m/s 762 mmHg 74%
    09:00 +17°C° 0 mm 2 m/s 762 mmHg 67%
    10:00 +19°C° 0 mm 2 m/s 762 mmHg 60%
    11:00 +20°C° 0 mm 2 m/s 761 mmHg 58%
    12:00 +21°C° 0 mm 2 m/s 761 mmHg 56%
    13:00 +21°C° 0 mm 2 m/s 761 mmHg 54%
    14:00 +21°C° 0 mm 2 m/s 761 mmHg 59%
    15:00 +20°C° 0 mm 2 m/s 761 mmHg 64%
    16:00 +19°C° 0 mm 2 m/s 760 mmHg 69%
    17:00 +18°C° 0 mm 2 m/s 761 mmHg 73%
    18:00 +16°C° 0 mm 2 m/s 761 mmHg 77%
    19:00 +15°C° 0 mm 2 m/s 761 mmHg 81%
    20:00 +15°C° 0 mm 2 m/s 761 mmHg 81%
    21:00 +15°C° 0 mm 2 m/s 761 mmHg 82%
    22:00 +15°C° 0 mm 2 m/s 761 mmHg 82%
    23:00 +15°C° 0 mm 2 m/s 761 mmHg 82%
    Arată mai mult